Tracking 19489 objects as of 22-Jan-2019
HD Live streaming from Space Station
objects crossing your sky now

RADUGA 1-6

Track RADUGA 1-6 now!
RADUGA 1-6 is classified as:


NORAD ID: 26936
Int'l Code: 2001-045A
Perigee: 36,463.6 km
Apogee: 36,571.9 km
Inclination: 12.1 °
Period: 1,473.2 minutes
Semi major axis: 42888 km
RCS: 6.3096 m2 (large)
Launch date: October 6, 2001
Source: Commonwealth of Independent States (former USSR) (CIS)
Launch site: TYURATAM MISSILE AND SPACE COMPLEX (TTMTR)

Military communication.
aabbcc
Your satellite tracking list
Your tracking list is empty




NASA's NSSDC Master Catalog

Two Line Element Set (TLE):
1 26936U 01045A   19022.55301866 -.00000055  00000-0  00000+0 0  9994
2 26936  12.1033  33.8949 0012626 152.7180  25.0534  0.97743425 62159
Source of the keplerian elements: AFSPC